一网星座-0633星 (ONEWEB-0633)

导读 | 星芒AI

ONEWE-0633 是 OneWeb 卫星通信星座计划中的一颗低轨通信卫星,旨在为全球提供高速互联网服务。该卫星由阿丽亚娜集团制造,采用统一平台设计,具备高容量和灵活性。它部署在约 1200 公里的近地轨道,与其他 OneWeb 卫星协同工作,支持偏远地区和移动用户的宽带接入。该星座由多国合作推进,是实现全球数字连接的重要组成部分。

基本信息
目录编号:
56074
目录名称:
ONEWEB-0633
国际标识:
2023-043AE
轨道中心:
EARTH
卫星名称:
一网星座-0633星
卫星全名:
一网星座-0633星 (ONEWEB-0633)
卫星状态:
在轨 (已飞行995 天)
发射日期:
2023-03-26 UTC
国别 :
英国 (GB)
星等 :
--
轨道信息
数据来源 国际轨道数据 AOE轨道数据
星历时间 2025-12-15T05:01:48+0800
22小时前
查看轨道信息
2025-12-14T08:00:00+0800
1天前
查看轨道信息
半长轴 7579.905km 7579.893km
偏心率 0.0001937 0.0001981
轨道倾角 87.899° 87.899°
近地点辐角 66.260° 71.083°
升交点赤经 295.961° 296.136°
平近点角 293.873° 101.520°
近地点 1200.301km 1200.256km
远地点 1203.239km 1203.26km
周期 109.460分钟 109.460分钟
每日圈数 13.155494 13.155525
详细信息
平衡模式:
三轴稳定
覆盖范围:
全球
运营商:
一网卫星公司
运营商所在国:
英国
制造商(研发单位):
一网卫星公司
制造商所在国:
英国
使用方式:
暂无
卫星简介
OneWeb卫星网络由648颗重约125公斤的微型卫星组成,运行在1200公里的轨道上。 每颗卫星都能够提供至少每秒8千兆位的吞吐量,以使用其高吞吐量的Ku频段有效载荷为家庭和移动平台提供互联网接入。该卫星仍在工作。
2D轨道图
3D轨道图
轨道高度分析图
轨道倾角分析图
轨道综合分析图
查看轨道综合分析图